Powrót do katalogu

IRIDIUM 36

AktywnyŁącznośćPO
NORAD 24967·PAYLOAD·🇺🇸 United States

Wystrzelony Sep 27, 1997 z Vandenberg Space Force Base

Loading…

Następne Przeloty (najbliższe 24 godziny)

TLE

ŚwieżeSource: Space-Track

Epoka: Sep 14, 2026, 05:55 UTC

1 24967U 97056C   26257.24686773  .00000264  00000-0  80854-4 0  9991
2 24967  86.4018 342.1008 0002184  86.0268 274.1179 14.37989113517460

Śledź IRIDIUM 36 w czasie rzeczywistym z AllMySat

Download on the App Store